This demonstration page uses our WeatherBlox Daily Observations layout. Learn more.

39.92423, -83.80882

Hourly Observations for September 18, 2020

Temp ( °F °C ) Dew Point ( °F °C ) Humidity (%) Winds ( mph kmh ) Pressure ( in mb ) Visibility ( mi km ) Precip ( " mm )
12:56 am 00:56 Mostly Cloudy 59 15 52 11.1 78 78 NE 10 17 30.07 1018 10 16.0934 0 0
1:56 am 01:56 Cloudy 59 15 52 11.1 78 78 NNE 16 26 30.08 1019 10 16.0934 0 0
2:56 am 02:56 Cloudy 57 13.9 51 10.6 81 81 N 12 19 30.09 1019 10 16.0934 0 0
3:56 am 03:56 Cloudy 55 12.8 51 10.6 87 87 NE 13 20 30.09 1019 10 16.0934 0 0
4:56 am 04:56 Cloudy 53 11.7 50 10 89 89 NNE 13 20 30.11 1020 10 16.0934 0 0
5:56 am 05:56 Clear 52 11.1 49 9.4 89 89 NNE 10 17 30.12 1020 10 16.0934 0 0
6:56 am 06:56 Clear 51 10.6 48 8.9 89 89 N 13 20 30.15 1021 10 16.0934 0 0
7:56 am 07:56 Sunny 50 10 48 8.9 93 93 N 9 15 30.17 1022 10 16.0934 0 0
8:56 am 08:56 Sunny 53 11.7 47 8.3 80 80 N 12 19 30.19 1022 10 16.0934 0 0
9:56 am 09:56 Sunny 57 13.9 44 6.7 62 62 NNE 20 31 30.22 1023 10 16.0934 0 0
10:56 am 10:56 Sunny 59 15 44 6.7 58 58 NNE 17 28 30.23 1024 10 16.0934 0 0
11:56 am 11:56 Sunny 61 16.1 43 6.1 52 52 NNE 18 30 30.24 1024 10 16.0934 0 0
12:56 pm 12:56 Sunny 62 16.7 44 6.7 52 52 NNE 17 28 30.23 1024 10 16.0934 0 0
1:56 pm 13:56 Partly Cloudy 64 17.8 44 6.7 48 48 NNE 15 24 30.23 1024 10 16.0934 0 0
2:56 pm 14:56 Mostly Sunny 64 17.8 44 6.7 48 48 N 15 24 30.22 1023 10 16.0934 0 0
3:56 pm 15:56 Mostly Sunny 64 17.8 41 5 43 43 NNE 16 26 30.22 1024 10 16.0934 0 0
4:56 pm 16:56 Sunny 63 17.2 39 3.9 41 41 NNE 15 24 30.23 1024 10 16.0934 0 0
5:56 pm 17:56 Sunny 62 16.7 40 4.4 44 44 NNE 16 26 30.24 1024 10 16.0934 0 0
6:56 pm 18:56 Sunny 59 15 38 3.3 46 46 NNE 16 26 30.25 1024 10 16.0934 0 0
7:56 pm 19:56 Clear 55 12.8 39 3.9 55 55 NNE 9 15 30.27 1025 10 16.0934 0 0
8:56 pm 20:56 Clear 52 11.1 40 4.4 64 64 NNE 9 15 30.29 1026 10 16.0934 0 0
9:56 pm 21:56 Clear 51 10.6 41 5 69 69 NNE 9 15 30.31 1026 10 16.0934 0 0
10:56 pm 22:56 Clear 49 9.4 40 4.4 71 71 NE 8 13 30.32 1027 10 16.0934 0 0
11:56 pm 23:56 Clear 47 8.3 39 3.9 74 74 NE 10 17 30.33 1027 10 16.0934 0 0

Powered by AerisWeather